Lid_Strength_Index
6 7 7 7 8 9 8 6 8 3 2 8 7 9 9 10 9 8 8 8 9 10 10 11 10 10 8 5 6 8 6 9 12 10 7 6 7 9 9 15 15 12 13 12
7 7 7 8 8 9 8 9 8 4 5 9 9 9 9 9 10 9 10 10 9 8 10 11 10 9 6 5 6 7 7 10 14 12 9 9 10 10 9 8 9 13 16 13
7 7 8 8 8 9 8 9 10 8 7 8 10 10 10 10 9 9 9 9 9 10 10 9 10 8 6 5 5 5 5 9 12 15 12 10 13 12 10 13 14 13 12 11
7 7 7 8 8 8 8 7 9 9 11 10 9 9 9 10 10 9 9 10 10 10 12 10 9 8 7 6 4 5 6 11 10 9 9 9 10 9 9 11 10 13 11 12
7 7 7 8 8 9 7 10 10 9 10 9 10 10 10 10 10 10 10 11 10 10 11 10 10 8 7 8 6 6 6 10 9 10 9 9 10 9 9 9 9 9 9 9
7 7 7 8 8 8 8 8 8 10 10 10 11 10 10 11 10 10 10 11 11 11 9 8 7 7 6 6 7 7 8 9 11 14 9 10 14 10 9 9 8 8 11 8
7 6 7 8 8 9 8 8 10 11 12 11 11 10 10 11 10 11 10 9 10 8 6 6 6 6 6 6 6 5 8 9 10 14 12 18 9 7 7 8 7 7 7 7
7 7 7 8 8 8 8 7 9 10 12 11 11 10 10 10 9 10 10 10 8 7 8 9 9 9 9 9 8 7 7 9 14 16 15 12 10 8 9 10 10 6 7 7
8 7 6 7 8 8 9 7 7 9 12 11 11 11 10 11 11 11 10 8 7 7 8 9 12 12 10 12 11 7 8 9 14 14 18 18 10 8 6 6 12 7 7 7
7 7 6 6 7 8 8 8 6 9 12 10 10 11 11 10 11 12 10 10 8 7 9 11 11 11 9 12 13 14 13 13 15 14 16 12 8 6 5 14 12 7 6 6
7 7 6 5 6 7 8 8 6 10 11 11 10 9 10 10 10 12 9 9 8 8 10 10 10 11 10 10 9 10 11 13 14 14 16 17 6 7 12 8 6 5 5 6
6 6 6 6 5 7 7 10 7 7 10 11 9 8 7 8 8 9 8 8 8 8 8 8 9 10 9 10 13 7 11 10 13 11 11 6 5 6 5 5 6 5 5 5
6 6 6 6 5 6 7 8 7 8 11 10 9 9 6 6 6 5 9 7 6 7 4 7 8 11 7 12 11 10 8 6 9 10 7 7 6 5 4 4 5 4 4 5
6 5 6 6 5 6 7 8 7 8 10 13 10 6 8 6 5 5 5 5 5 5 5 7 8 10 6 10 9 9 8 7 10 9 7 7 6 5 5 5 5 5 4 4
5 5 6 6 5 6 6 7 7 6 10 13 11 7 6 5 6 6 5 5 7 7 8 8 9 7 8 7 7 9 8 10 12 12 8 8 7 5 5 6 5 5 5 6
4 4 5 6 5 6 8 11 7 6 7 11 13 7 7 6 6 6 6 6 7 8 7 7 6 5 7 10 11 8 6 6 7 10 8 7 6 5 4 5 5 5 5 6
4 4 5 5 6 7 10 10 8 6 6 11 13 10 7 6 6 6 5 6 8 8 7 7 7 6 7 10 12 7 6 8 8 6 6 7 5 6 5 6 6 6 7 7
4 5 5 6 6 8 10 7 7 6 8 9 13 11 9 6 8 8 5 8 8 8 7 6 8 7 8 12 8 7 9 9 7 7 7 5 4 6 7 7 7 9 9 9
5 5 6 7 8 10 8 6 6 5 8 12 12 13 11 6 7 6 6 6 10 7 9 8 8 10 11 8 9 10 10 10 9 7 5 5 6 8 7 9 10 10 10 10
5 7 9 11 9 6 5 8 11 11 11 11 12 9 11 7 6 8 8 6 9 12 9 7 10 10 7 8 9 10 9 8 6 7 7 7 9 9 9 10 11 11 11 11
8 10 10 8 6 7 9 11 12 13 13 11 10 10 11 6 9 9 7 8 7 11 11 10 12 12 8 7 9 8 7 7 7 4 5 6 8 8 10 10 10 11 12 12
8 8 7 8 10 11 12 13 11 12 13 10 11 9 8 7 5 8 7 10 8 14 7 11 13 9 8 9 9 8 8 8 6 4 5 6 8 8 9 10 10 11 12 12
7 9 10 10 11 15 16 16 13 12 10 9 9 9 8 7 7 8 9 10 11 6 10 12 10 8 7 8 9 8 8 7 5 4 4 6 8 7 9 9 10 11 11 12
10 12 14 13 14 13 12 11 10 8 9 9 8 8 9 8 9 8 11 8 7 11 14 13 8 8 8 8 8 9 9 8 6 5 5 6 6 8 9 9 10 10 12 13
11 11 14 13 10 9 8 7 8 8 8 8 8 7 8 8 10 9 9 11 13 10 12 10 8 7 7 8 8 9 9 7 6 5 5 6 6 8 8 9 9 10 10 12
10 10 11 10 10 10 9 9 9 8 8 7 7 9 10 11 10 12 12 12 13 11 9 8 7 7 7 7 8 8 8 8 7 6 6 5 6 7 8 8 8 9 11 11
11 11 9 9 9 9 9 8 8 7 8 10 8 11 13 10 12 13 11 12 10 8 8 7 6 7 7 6 7 7 7 7 7 7 6 5 5 6 7 9 9 8 10 11